TimeMST,TemperatureF,Dew PointF,Humidity,Sea Level PressureIn,VisibilityMPH,Wind Direction,Wind SpeedMPH,Gust SpeedMPH,PrecipitationIn,Events,Conditions,WindDirDegrees,DateUTC
12:15 AM,19.8,-1.1,40,30.31,-9999.0,North,8.1,-,N/A,,Unknown,360,2014-01-06 07:15:00
12:35 AM,16.9,-0.6,46,30.32,10.0,North,8.1,-,N/A,,Unknown,10,2014-01-06 07:35:00
12:55 AM,15.1,-0.4,50,30.32,-9999.0,NNE,8.1,-,N/A,,Unknown,20,2014-01-06 07:55:00
1:15 AM,16.7,0.5,49,30.32,10.0,North,8.1,-,N/A,,Clear,360,2014-01-06 08:15:00
1:35 AM,15.3,0.3,52,30.33,10.0,North,5.8,-,N/A,,Unknown,350,2014-01-06 08:35:00
1:55 AM,17.6,0.1,46,-9999,-9999.0,North,-9999.0,-,N/A,,Unknown,0,2014-01-06 08:55:00
2:15 AM,14.9,0.5,53,30.33,-9999.0,NNE,5.8,-,N/A,,Unknown,20,2014-01-06 09:15:00
2:55 AM,16.5,0.7,50,30.33,-9999.0,Calm,Calm,-,N/A,,Unknown,0,2014-01-06 09:55:00
3:15 AM,18.1,1.4,48,30.33,10.0,NNE,3.5,-,N/A,,Unknown,30,2014-01-06 10:15:00
3:55 AM,17.1,2.3,52,30.33,10.0,NNE,9.2,-,N/A,,Unknown,20,2014-01-06 10:55:00
4:15 AM,16.3,2.1,54,30.34,10.0,NNE,8.1,-,N/A,,Unknown,20,2014-01-06 11:15:00
4:55 AM,17.6,2.3,51,30.34,-9999.0,NNE,9.2,-,N/A,,Unknown,20,2014-01-06 11:55:00
5:15 AM,18.7,2.3,49,30.34,-9999.0,North,-9999.0,-,N/A,,Unknown,0,2014-01-06 12:15:00
5:35 AM,-9999,-9999,N/A,-9999,-9999.0,North,-9999.0,-,N/A,,Unknown,0,2014-01-06 12:35:00
5:55 AM,17.8,1.9,50,30.35,10.0,NNE,8.1,-,N/A,,Clear,30,2014-01-06 12:55:00
6:15 AM,18.7,2.1,49,30.36,10.0,NNE,9.2,-,N/A,,Unknown,20,2014-01-06 13:15:00
6:35 AM,18.5,2.3,49,30.37,10.0,NNE,9.2,-,N/A,,Unknown,20,2014-01-06 13:35:00
6:55 AM,18.1,2.1,50,30.38,10.0,NNE,9.2,-,N/A,,Unknown,20,2014-01-06 13:55:00
7:15 AM,18.3,2.3,50,30.39,10.0,NNE,10.4,-,N/A,,Clear,20,2014-01-06 14:15:00
7:35 AM,19.0,2.5,49,30.40,-9999.0,NNE,8.1,-,N/A,,Unknown,20,2014-01-06 14:35:00
7:55 AM,-9999,-9999,N/A,-9999,-9999.0,North,-9999.0,-,N/A,,Unknown,0,2014-01-06 14:55:00
9:55 AM,29.5,3.7,33,30.44,10.0,NE,10.4,-,N/A,,Unknown,40,2014-01-06 16:55:00
10:15 AM,31.1,4.1,32,30.44,10.0,NNE,10.4,-,N/A,,Clear,30,2014-01-06 17:15:00
10:35 AM,32.0,3.6,30,30.43,10.0,NE,8.1,-,N/A,,Clear,40,2014-01-06 17:35:00
10:55 AM,33.1,2.1,27,30.41,10.0,NNE,5.8,-,N/A,,Clear,20,2014-01-06 17:55:00
11:15 AM,34.0,2.8,27,30.40,10.0,North,5.8,-,N/A,,Clear,360,2014-01-06 18:15:00
11:35 AM,35.1,2.5,25,30.39,10.0,NNE,4.6,-,N/A,,Clear,30,2014-01-06 18:35:00
11:55 AM,36.0,1.9,24,30.37,10.0,NNE,4.6,-,N/A,,Clear,20,2014-01-06 18:55:00
12:15 PM,36.9,1.2,22,30.36,10.0,NNE,6.9,-,N/A,,Clear,30,2014-01-06 19:15:00
12:35 PM,37.4,1.4,22,30.35,10.0,NE,6.9,-,N/A,,Clear,50,2014-01-06 19:35:00
12:55 PM,38.7,0.5,20,30.33,10.0,NNE,5.8,-,N/A,,Clear,20,2014-01-06 19:55:00
1:15 PM,38.7,-0.4,19,30.33,10.0,NE,8.1,-,N/A,,Clear,50,2014-01-06 20:15:00
1:35 PM,39.0,-0.2,19,30.33,10.0,ENE,5.8,-,N/A,,Clear,60,2014-01-06 20:35:00
1:55 PM,39.2,-0.2,19,30.32,10.0,NE,6.9,-,N/A,,Clear,50,2014-01-06 20:55:00
2:15 PM,39.7,-0.2,19,30.32,10.0,NE,4.6,-,N/A,,Clear,40,2014-01-06 21:15:00
2:35 PM,40.5,0.1,18,30.32,10.0,ENE,5.8,-,N/A,,Clear,60,2014-01-06 21:35:00
2:55 PM,40.5,-0.0,18,30.31,10.0,NE,5.8,-,N/A,,Clear,40,2014-01-06 21:55:00
3:15 PM,41.0,0.1,18,30.31,10.0,NNE,5.8,-,N/A,,Clear,30,2014-01-06 22:15:00
3:35 PM,41.0,0.1,18,30.31,10.0,NE,4.6,-,N/A,,Clear,50,2014-01-06 22:35:00
3:55 PM,40.8,-0.2,18,30.30,10.0,NE,5.8,-,N/A,,Clear,50,2014-01-06 22:55:00
4:15 PM,40.1,-0.4,18,30.30,10.0,NE,6.9,-,N/A,,Clear,40,2014-01-06 23:15:00
4:35 PM,39.0,-0.9,19,30.29,10.0,NE,4.6,-,N/A,,Clear,40,2014-01-06 23:35:00
4:55 PM,36.1,-0.4,21,30.29,10.0,NNE,6.9,-,N/A,,Clear,30,2014-01-06 23:55:00
5:15 PM,34.3,-0.6,23,30.29,10.0,NNE,5.8,-,N/A,,Clear,30,2014-01-07 00:15:00
5:35 PM,33.4,-0.6,24,30.29,10.0,North,5.8,-,N/A,,Clear,10,2014-01-07 00:35:00
5:55 PM,29.1,-0.8,28,30.29,10.0,North,6.9,-,N/A,,Clear,10,2014-01-07 00:55:00
6:15 PM,27.0,-1.1,30,30.30,10.0,North,8.1,-,N/A,,Clear,10,2014-01-07 01:15:00
6:35 PM,26.1,-0.6,32,30.30,10.0,North,9.2,-,N/A,,Clear,10,2014-01-07 01:35:00
6:55 PM,24.4,-0.6,34,30.30,10.0,NNW,6.9,-,N/A,,Clear,340,2014-01-07 01:55:00
7:15 PM,23.9,-0.6,35,30.31,10.0,NW,6.9,-,N/A,,Clear,310,2014-01-07 02:15:00
7:35 PM,25.2,-0.4,33,30.32,10.0,NW,5.8,-,N/A,,Clear,310,2014-01-07 02:35:00
7:55 PM,25.3,-0.4,33,30.32,10.0,NW,6.9,-,N/A,,Clear,310,2014-01-07 02:55:00
8:15 PM,24.8,-0.4,34,30.33,10.0,NW,5.8,-,N/A,,Clear,310,2014-01-07 03:15:00
8:35 PM,23.7,-0.4,35,30.33,10.0,Calm,Calm,-,N/A,,Unknown,0,2014-01-07 03:35:00
8:55 PM,25.0,-0.4,33,30.33,10.0,NW,3.5,-,N/A,,Clear,320,2014-01-07 03:55:00
9:15 PM,21.9,-0.4,38,30.33,10.0,NW,4.6,-,N/A,,Clear,320,2014-01-07 04:15:00
9:35 PM,18.5,0.3,45,30.34,-9999.0,Calm,Calm,-,N/A,,Unknown,0,2014-01-07 04:35:00
9:55 PM,21.7,-0.4,38,30.34,-9999.0,WSW,4.6,-,N/A,,Unknown,250,2014-01-07 04:55:00
10:15 PM,22.5,0.1,38,30.34,10.0,Calm,Calm,-,N/A,,Unknown,0,2014-01-07 05:15:00
10:35 PM,23.2,-0.4,36,30.33,10.0,NW,5.8,-,N/A,,Clear,320,2014-01-07 05:35:00
10:55 PM,23.7,-0.4,35,30.33,10.0,North,3.5,-,N/A,,Clear,350,2014-01-07 05:55:00
11:35 PM,19.9,0.5,43,30.33,-9999.0,North,3.5,-,N/A,,Unknown,350,2014-01-07 06:35:00
11:55 PM,20.3,0.5,42,30.32,10.0,North,4.6,-,N/A,,Clear,360,2014-01-07 06:55:00